OBJECT C, 62727

Orbit data source: Space-Track

You're viewing an Uncataloged Satellite

Recently launched and/or uncataloged satellites may have evolving metadata. Metadata may include but not limited to: Owner, Maufacturer, Bus, Motor, and Mission.

OBJECT C, 62727 is a Chinese satellite in SSO that was launched on Fri, 17 Jan 2025 UTC via a CHANG ZHENG 2D launch vehicle from the Jiuquan Satellite Launch Center, China (JSC). Unknown objects in Earth's orbit typically refer to objects detected orbiting the Earth but have not yet been identified or cataloged. These objects could be anything from previously untracked satellites, spent rocket stages, debris from satellite collisions, or even natural meteoroids temporarily captured by Earth's gravity.

Loading next visibility...
Identifier
62727, 2025-012C
Orbit
SSO
Country
Flag of CNCN / PRC
Related business
None
Manufacturer
Shikong Daoyu
Mission
Operational Civil Imaging
Bus & Motor
LANTAN, Unknown motor
Mass
66 kg wet, 66 kg dry
Launch date (UTC)
2025-01-17 (8 months ago)
Launch vehicle
CHANG ZHENG 2D
Launch site
Jiuquan Satellite Launch Center, China (JSC)
Object type
Unknown
Shape & HBR
Box + 2 Pan, 1.0 m
Radar Cross Section
0.583 m², Large (>1 m²)

Expand to show TLE details & history
Last TLE update: 11 hours ago

TLE from 11 hours ago
0 OBJECT C
1 62727U 25012C   25260.96697090  .00009445  00000-0  43821-3 0  9998
2 62727  97.4564 333.5445 0009802 138.5746 221.6234 15.20214200 36928
Epoch: 2025-09-17T23:12Z
TLE epoch observation values (Epoch: 2025-09-17T23:12:26.285Z)
Latitude
-0.00004°
Longitude
-11.70035°
Altitude
513.331 km
Speed
7.604 km/s
True Right ascension
22h 14m 10s
True Declination
0° 00' 00"
Sunlit
Object was in full shadow at epoch
Visualization orbit readout
Latitude
Unknown
Longitude
Unknown
Altitude
Unknown
Speed
Unknown
Apparent Right ascension
Unknown
Apparent Declination
Unknown
Sunlit
N/A
Visualization observer readout
Local Sidereal Time
02:42:03
Azimuth
Unknown
Elevation
Unknown
Doppler factor
Unknown
Orbital elements
Apogee altitude
508.906 km
Perigee altitude
495.418 km
Semi-major axis
6,880.299 km
Eccentricity
0.00098
Inclination
97.4564°
RAAN
333.5445°
Arg. of periapsis
138.5746°
True anomaly
221.54886°
Mean anomaly
221.6234°
Eccentric anomaly
221.58612°
Mean motion
3.80305 °/min
Orbital period
94.66 mins
BSTAR
0.00043821
Loading maneuver chart data...
Computing Atmospheric mass density...
Loading historical data...
Loading historical data...
Loading historical data...
Loading historical data...
Loading historical data...
Loading historical data...
Loading historical data...
Other satellites on launch #12 in the year 2025 (2025-01-17 UTC)

Documentation

Showing up to 5 results
|